Location: Newark
(48.9886°N, 1.2358°E)
Time: 15:25:44
(UTC+00:00)

Transit 4A - Pass Details

Date: 26 November 2019
Orbit: 870 x 975 km, 66.8° (Epoch: 08 December)

Event Time Altitude Azimuth Distance (km) Brightness Sun altitude
Exits shadow 06:24:54 11° 296° (WNW) 2,479 9.4 -8.9°
Maximum altitude 06:28:38 19° 255° (WSW) 1,952 9.2 -8.4°
Drops below altitude 10° 06:32:35 10° 211° (SSW) 2,512 10.1 -7.8°
Sets 06:35:43 0° 194° (SSW) 3,443 11.0 -7.3°
